Championnats Départementaux Hiver - RHÔNE

Départementale

CHASSIEU

Du Samedi 21 Mars 2009 au Dimanche 22 Mars 2009

Bassin de 25m

50 Dos Messieurs

Séries

Nom Année Club Pays Temps Points Niv.
1 BENAMAR Isli 1991 CMO VÉNISSIEUX FRA 0:30:79 1044
2 WECKX Thomas 1993 CHASSIEU NATATION FRA 0:31:00 1031
3 WACKER Didier 1965 LYON NATATION FRA 0:31:05 1028
4 CAPITAINE Arnaud 1991 LYON NATATION FRA 0:31:36 1010
5 CESPEDES Anthony 1992 UJS LA MULATIÈRE NATATION FRA 0:31:40 1008
6 VAUTIER Frédéric 1990 RILLIEUX NATATION FRA 0:31:47 1004
7 REINA Jordi 1991 CHASSIEU NATATION FRA 0:31:50 1002
8 DE WITTE Benjamin 1985 UJS LA MULATIÈRE NATATION FRA 0:31:60 996
9 DEWEERDT Jérome 1986 AS CALUIRE FRA 0:31:60 996
10 SCHULZ Victor 1993 ND VILLEFRANCHE-EN-BEAUJOLAIS FRA 0:31:80 985
11 MORLIN Gaël 1991 CMO VÉNISSIEUX FRA 0:31:80 985
12 PETAUD Brice 1989 CMO VÉNISSIEUX FRA 0:31:90 979
13 RIBAUD Jérôme 1992 CHASSIEU NATATION FRA 0:31:99 974
14 BOCQUELET David 1993 CMO VÉNISSIEUX FRA 0:32:05 970
15 OLIVA Benjamin 1991 RILLIEUX NATATION FRA 0:32:33 955
16 CAPEZZONE Jean 1987 VILLEURBANNE NATATION FRA 0:32:52 944
17 ARSAC Emeric 1995 EMS BRON FRA 0:32:72 933
18 COCHET Raphaël 1991 ASPTT LYON FRA 0:32:88 924
19 KHELIF Ghani 1994 CMO VÉNISSIEUX FRA 0:33:00 917
20 DUONG Donny 1995 CHASSIEU NATATION FRA 0:33:21 905
21 RANNOU Bertrand 1988 RILLIEUX NATATION FRA 0:33:30 900
22 DI SANTE Benjamin 1995 SAUVETEURS GIVORS FRA 0:33:31 900
23 BIGENI Marc 1989 AS CALUIRE FRA 0:33:34 898
24 BERGER Quentin 1994 AC DÉCINES FRA 0:33:96 864
25 MOUSSALEM Wissem 1993 LYON NATATION FRA 0:34:03 861
26 FERNANDEZ RAMDANE Jimmy 1995 RILLIEUX NATATION FRA 0:34:70 825
27 WAGNER Stéphane 1995 CHASSIEU NATATION FRA 0:34:84 818
28 NICOLAS Hugo 1995 ND VILLEFRANCHE-EN-BEAUJOLAIS FRA 0:35:17 800
29 HARISLUR Clement 1992 LYON NATATION FRA 0:35:42 787
30 LUQUE Fabien 1995 UJS LA MULATIÈRE NATATION FRA 0:35:70 773
31 DELAIRE Léo 1994 EMS BRON FRA 0:36:03 756
32 FAURE Alexis 1994 CMO VÉNISSIEUX FRA 0:37:68 675
33 GARCIA Manuel 1992 UJS LA MULATIÈRE NATATION FRA 0:37:68 675
34 SALHI Mattis 1995 VILLEURBANNE NATATION FRA 0:37:71 674
35 CHORFA Smail 1994 CMO VÉNISSIEUX FRA 0:37:72 673
36 FEKIH Mohamed 1994 CMO VÉNISSIEUX FRA 0:37:94 663
37 COPETTI Bastien 1994 UJS LA MULATIÈRE NATATION FRA 0:38:07 657
38 RIGOULET Vital 1992 CASCOL NATATION FRA 0:38:10 655
39 JALADE Cedric 1995 SAUVETEURS GIVORS FRA 0:38:62 631
40 BERNADAC Clement 1994 SAL ST-PRIEST NATATION FRA 0:38:77 624
41 GREGOIRE Lucas 1995 CMO VÉNISSIEUX FRA 0:38:80 623
42 AMBRI Sofian 1995 EMS BRON FRA 0:39:16 607
43 FYON Valentin 1995 SAUVETEURS GIVORS FRA 0:39:78 579
44 POUCHOL Mathurin 1994 CASCOL NATATION FRA 0:39:95 571
45 KHAMMASSI Mehdi 1995 ASPTT LYON FRA 0:40:16 562
46 MARCHIO Lucas 1995 LYON NATATION FRA 0:40:23 559
47 BENCHERIF Kamel 1995 CMO VÉNISSIEUX FRA 0:44:01 407
48 BOST Geoffray 1995 CN TARARE FRA 0:44:56 387
49 POULAIN Théo 1995 LYON NATATION FRA 0:44:70 382
50 LAURENCON Remi 1992 UJS LA MULATIÈRE NATATION FRA - Disq.
51 LECONTE Damien 1993 AC DÉCINES FRA - Disq.
52 AUGE Alexandre 1994 LYON NATATION FRA - Disq.
53 AUGUSTIN Ludovic 1995 CMO VÉNISSIEUX FRA - Disq.